Location: Sulphur Springs (historical)
(38.1246°N, 122.1900°W)
Time: 09:25:51
(UTC+00:00)

Meteor 1-31 Rocket - Pass Details

Date: 29 October 2020
Orbit: 521 x 546 km, 97.6° (Epoch: 23 November)

Event Time Altitude Azimuth Distance (km) Brightness Sun altitude
Rises 13:40:59 0° 358° (N) 2,720 6.2 -10.6°
Reaches altitude 10° 13:43:22 10° 345° (NNW) 1,822 5.2 -10.2°
Maximum altitude 13:46:37 25° 290° (WNW) 1,124 3.8 -9.6°
Drops below altitude 10° 13:49:50 10° 234° (SW) 1,805 5.0 -8.9°
Sets 13:52:12 0° 221° (SW) 2,690 6.0 -8.5°
